Location: Newark
(53.7833°N, 9.4833°E)
Time: 14:15:45
(UTC+00:00)

Envisat - Pass Details

Date: 13 December 2019
Orbit: 764 x 766 km, 98.1° (Epoch: 20 January)

Event Time Altitude Azimuth Distance (km) Brightness Sun altitude
Rises 04:26:40 0° 30° (NNE) 3,247 6.6 -25.6°
Reaches altitude 10° 04:31:27 10° 71° (ENE) 2,311 6.3 -24.9°
Maximum altitude 04:32:19 10° 81° (E) 2,281 6.4 -24.8°
Drops below altitude 10° 04:33:13 10° 91° (E) 2,308 6.5 -24.7°
Sets 04:37:56 0° 131° (SE) 3,225 7.1 -24.0°
